Regional Weather Roundup
Issued by NWS

Home | Current Version | Previous Version | Graphics & Text | Print | Product List | Glossary On
Versions: 1 2 3 4 5 6 7 8 9 10 11 12 13 14 15 16 17 18 19 20 21 22 23 24 25 26 27 28 29 30 31 32 33 34 35 36 37 38 39 40 41 42 43 44 45 46 47 48
000
ASUS45 KSLC 290710
RWRUT

UTAH REGIONAL WEATHER ROUNDUP
NATIONAL WEATHER SERVICE SALT LAKE CITY UT
100 AM MDT SUN MAR 29 2015

UTZ001>011-023>025-290800-

NORTHERN UTAH

CITY           SKY/WX    TMP DP  RH WIND       PRES   REMARKS
BRIGHAM CITY   CLEAR     51  11  19 CALM      30.28R
HILL AFB       CLEAR     47  19  33 NW8       30.27
LOGAN          CLEAR     39  24  55 CALM      30.29S
OGDEN          CLEAR     46  20  35 NW8       30.26R
PROVO AIRPORT  CLEAR     54  30  40 NW8       30.25S
SALT LAKE CITY CLEAR     48  26  42 NW7       30.27R
VERNAL         CLEAR     51   6  16 CALM      30.17R
WENDOVER       CLEAR     48  18  29 NE13      30.30R
HEBER CITY     CLEAR     41  19  42 CALM      30.28R
WEST JORDAN    CLEAR     48  27  43 NW16      30.28R

$$

UTZ012>022-026-027-290800-

SOUTHERN/CENTRAL UTAH

CITY           SKY/WX    TMP DP  RH WIND       PRES   REMARKS
BLANDING       CLEAR     48  23  37 N12       30.23S
BRYCE CANYON   CLEAR     34  27  75 W12       30.32R WCI  25
CEDAR CITY     CLEAR     50  21  32 SW6       30.25R
DELTA          PTCLDY    53  19  26 NE7       30.25R
HANKSVILLE     CLEAR     50  21  32 CALM      30.13S
MILFORD        PTCLDY    50  23  34 N10       30.24R
MOAB/CYNLANDS  CLEAR     50  19  29 CALM      30.09R
PRICE          CLEAR     56  19  23 NW13G22   30.22R
ST GEORGE      SUNNY     64  23  20 CALM      30.10S
KANAB          CLEAR     39  27  60 NE5       30.24R

$$

REGIONAL REPORTS     COLORADO/ARIZONA

CITY           SKY/WX    TMP DP  RH WIND       PRES   REMARKS
CRAIG, CO      PTCLDY    47  19  33 NE7       30.21R
GRAND JUNCTION MOCLDY    48  23  37 CALM      30.10S
RIFLE          CLOUDY    62  18  18 W10       30.15R
MONTROSE       PTCLDY    51  25  36 CALM      30.18R
CORTEZ         CLEAR     38  20  48 NE6       30.19F WCI  33
PAGE, AZ       CLEAR     65  20  17 CALM      30.13R
GRAND CANYON   CLEAR     32  19  58 CALM      30.30S
KINGMAN        CLEAR     55  23  28 S7        30.13S
FLAGSTAFF      CLEAR     44  19  36 W6        30.32F

$$

REGIONAL REPORTS    NEVADA/IDAHO/WYOMING

CITY           SKY/WX    TMP DP  RH WIND       PRES   REMARKS
LAS VEGAS, NV  CLEAR     73  16  11 S13       29.98S
ELY            CLEAR     43  12  28 NW7       30.31R
ELKO           PTCLDY    35  15  44 CALM      30.31S
POCATELLO, ID  CLEAR     44  20  38 SW14      30.32R
BURLEY         CLEAR     41  21  44 W10       30.31R
EVANSTON, WY   CLEAR     40  20  44 W13       30.31S WCI  32
ROCK SPRINGS   CLEAR     41  18  39 W13       30.25S
KEMMERER       CLEAR     37  14  38 NW14      30.28R WCI  29

$$


USA.gov is the U.S. government's official web portal to all federal, state and local government web resources and services.